Location: Harmony
(28.2000°N, 81.1500°W)
Time: 23:19:46
(UTC-05:00)

Okean 1-7 Rocket - Pass Details

Date: 18 December 2017
Orbit: 617 x 649 km, 82.5° (Epoch: 21 January)

Event Time Altitude Azimuth Distance (km) Brightness Sun altitude
Rises 18:48:54 0° 195° (SSW) 2,874 7.5 -16.5°
Reaches altitude 10° 18:51:09 10° 200° (SSW) 1,973 6.7 -17.0°
Maximum altitude 18:55:25 53° 277° (W) 765 4.3 -17.9°
Drops below altitude 10° 18:59:44 10° 355° (N) 1,995 6.0 -18.8°
Enters shadow 19:02:00 - 360° (N) 2,902 6.8 -19.3°
